Weather History for KFEP - September, 2012

Change the Weather History Date:

Thursday, September 20, 2012

  Actual Average Record
Temperature  
Mean Temperature 58 °F -  
Max Temperature 69 °F 73 °F 90 °F (1978)
Min Temperature 46 °F 50 °F 32 °F (1991)
Degree Days  
Heating Degree Days 8    
Growing Degree Days 8 (Base 50)    
Moisture  
Dew Point 32 °F    
Average Humidity 37    
Maximum Humidity 71    
Minimum Humidity 21    
Precipitation  
Precipitation 0.00 in - - ()
Sea Level Pressure  
Sea Level Pressure 29.93 in    
Wind  
Wind Speed 13 mph (WSW)    
Max Wind Speed 20 mph    
Max Gust Speed 29 mph    
Visibility 10 miles    
Events      
Averages and records for this station are not official NWS values.
T = Trace of Precipitation, MM = Missing Value Source: NWS Daily Summary

Daily Weather History Graph

Daily Weather History Graph

Search for Another Location

Airport or City:

Trip Planner

Search our weather history database for the weather conditions in past years. The results will help you decide how hot, cold, wet, or windy it might be!

Date:

Astronomy

Sep. 20, 2012 Rise Set
Actual Time 6:44 AM CDT 6:58 PM CDT
Civil Twilight 6:16 AM CDT 7:26 PM CDT
Nautical Twilight 5:43 AM CDT 7:59 PM CDT
Astronomical Twilight 5:09 AM CDT 8:32 PM CDT
Moon 12:08 PM CDT (9/20) 9:53 PM CDT (9/20)
Length of Visible Light 13h 10m
Length of Day
12h 14m
Waxing Crescent, 27% of the Moon is Illuminated
Sep 20
Waxing Crescent
Sep 22
First Quarter
Sep 29
Full
Oct 8
Last Quarter
Oct 15
New

Hourly Weather History & Observations

Time (CDT) Temp. Windchill Dew Point Humidity Pressure Visibility Wind Dir Wind Speed Gust Speed Precip Events Conditions
10:22 AM 64.4 °F - 39.2 °F 40% 29.93 in 10.0 mi WSW 12.7 mph 18.4 mph N/A   Clear
11:00 AM 66.2 °F - 37.4 °F 35% 29.94 in 10.0 mi West 13.8 mph 17.3 mph N/A   Unknown
11:37 AM 66.2 °F - 35.6 °F 32% 29.93 in 10.0 mi West 19.6 mph 23.0 mph N/A   Clear
11:57 AM 66.2 °F - 30.2 °F 26% 29.92 in 10.0 mi WSW 17.3 mph 24.2 mph N/A   Clear
12:37 PM 68.0 °F - 30.2 °F 24% 29.92 in 10.0 mi WSW 18.4 mph 25.3 mph N/A   Clear
1:02 PM 69.8 °F - 30.2 °F 23% 29.92 in 10.0 mi West 16.1 mph 21.9 mph N/A   Clear
1:17 PM 66.2 °F - 30.2 °F 26% 29.92 in 10.0 mi West 19.6 mph 28.8 mph N/A   Clear
1:43 PM 66.2 °F - 30.2 °F 26% 29.91 in 10.0 mi West 15.0 mph - N/A   Clear
2:04 PM 66.2 °F - 28.4 °F 24% 29.92 in 10.0 mi West 18.4 mph 25.3 mph N/A   Clear
2:22 PM 66.2 °F - 28.4 °F 24% 29.92 in 10.0 mi WSW 18.4 mph 24.2 mph N/A   Clear
2:57 PM 66.2 °F - 28.4 °F 24% 29.91 in 10.0 mi West 17.3 mph 24.2 mph N/A   Clear
3:17 PM 68.0 °F - 26.6 °F 21% 29.92 in 10.0 mi West 17.3 mph 24.2 mph N/A   Clear
3:37 PM 69.8 °F - 30.2 °F 23% 29.91 in 10.0 mi WSW 12.7 mph 18.4 mph N/A   Clear
3:57 PM 66.2 °F - 28.4 °F 24% 29.91 in 10.0 mi WSW 11.5 mph 19.6 mph N/A   Clear
4:17 PM 69.8 °F - 28.4 °F 21% 29.91 in 10.0 mi West 16.1 mph 20.7 mph N/A   Clear
4:37 PM 68.0 °F - 28.4 °F 23% 29.91 in 10.0 mi WSW 12.7 mph 18.4 mph N/A   Clear
5:41 PM 64.4 °F - 24.8 °F 22% 29.92 in 10.0 mi West 12.7 mph - N/A   Clear
6:21 PM 64.4 °F - 26.6 °F 24% 29.93 in 10.0 mi West 9.2 mph - N/A   Clear
6:40 PM 62.6 °F - 26.6 °F 26% 29.94 in 10.0 mi West 5.8 mph - N/A   Clear
7:21 PM 59.0 °F - 30.2 °F 34% 29.94 in 10.0 mi WSW 3.5 mph - N/A   Clear
8:21 PM 53.6 °F - 35.6 °F 51% 29.95 in 10.0 mi WSW 3.5 mph - N/A   Clear
8:40 PM 53.6 °F - 37.4 °F 54% 29.95 in 10.0 mi Calm Calm - N/A   Clear
9:19 PM 48.2 °F - 35.6 °F 62% 29.96 in 10.0 mi WSW 3.5 mph - N/A   Clear
10:17 PM 51.8 °F - 37.4 °F 58% 29.96 in 10.0 mi Calm Calm - N/A   Clear
10:56 PM 46.4 °F - 37.4 °F 71% 29.96 in 10.0 mi Calm Calm - N/A   Clear
11:16 PM 46.4 °F - 37.4 °F 71% 29.96 in 10.0 mi Calm Calm - N/A   Clear
11:36 PM 46.4 °F 45.2 °F 37.4 °F 71% 29.96 in 10.0 mi SSW 3.5 mph - N/A   Clear
11:57 PM 46.4 °F - 37.4 °F 71% 29.96 in 10.0 mi Calm Calm - N/A   Clear